Location: Monfort
(47.1967°N, 0.2115°W)
Time: 04:01:34
(UTC+00:00)

Cosmos 2219 - Pass Details

Date: 24 October 2020
Orbit: 832 x 862 km, 71.1° (Epoch: 01 December)

Event Time Altitude Azimuth Distance (km) Brightness Sun altitude
Rises 17:26:35 0° 337° (NNW) 3,443 6.5 -5.8°
Reaches altitude 10° 17:29:23 10° 349° (NNW) 2,506 5.7 -6.2°
Maximum altitude 17:34:23 30° 49° (NE) 1,518 4.1 -7.1°
Drops below altitude 10° 17:39:22 10° 109° (ESE) 2,499 5.1 -7.9°
Enters shadow 17:41:17 - 118° (ESE) 3,134 5.7 -8.2°
